This demonstration page uses our WeatherBlox Daily Observations layout. Learn more.

Left ArrowRight Arrow

44.8408, -93.29828

Hourly Observations for May 27, 2015

Temp ( °F °C ) Dew Point ( °F °C ) Humidity (%) Winds ( mph kmh ) Pressure ( in mb ) Visibility ( mi km ) Precip ( " mm )
12:53 am 00:53 Mostly Clear 58 14.4 56 13.3 93 93 W 6 9 29.82 1010 8 13 0.00 0.00
1:53 am 01:53 Clear 57 13.9 55 12.8 93 93 WNW 3 6 29.83 1010 8 13 0.00 0.00
2:53 am 02:53 Mostly Clear with Mist and Fog 57 13.9 55 12.8 93 93 Calm 29.84 1011 5 8 0.00 0.00
3:53 am 03:53 Clear 56 13.3 55 12.8 97 97 SW 6 9 29.85 1011 7 11 0.00 0.00
4:53 am 04:53 Mostly Cloudy 55 12.8 55 12.8 100 100 Calm 29.87 1011 7 11 0.00 0.00
5:53 am 05:53 Mostly Cloudy with Mist and Fog 56 13.3 55 12.8 97 97 SW 5 7 29.88 1012 5 8 0.00 0.03
6:53 am 06:53 Partly Cloudy with Mist and Fog 57 13.9 56 13.3 96 96 SSW 3 6 29.91 1013 5 8 0.00 0.00
7:53 am 07:53 Mostly Cloudy 59 15 57 13.9 93 93 SW 5 7 29.92 1013 7 11 0.00 0.00
8:53 am 08:53 Mostly Cloudy 63 17.2 58 14.4 84 84 S 7 11 29.92 1013 9 14 0.00 0.00
9:53 am 09:53 Partly Cloudy 68 20 57 13.9 68 68 SSW 8 13 29.92 1013 10 16 0.00 0.00
10:53 am 10:53 Mostly Sunny 71 21.7 56 13.3 59 59 SW 13 20 29.92 1013 10 16 0.00 0.00
11:53 am 11:53 Sunny 75 23.9 57 13.9 54 54 WSW 9 15 29.93 1014 10 16 0.00 0.00
12:53 pm 12:53 Sunny 76 24.4 58 14.4 54 54 WSW 10 17 29.94 1014 10 16 0.00 0.00
1:53 pm 13:53 Sunny 80 26.7 57 13.9 45 45 SW 9 15 29.94 1014 10 16 0.00 0.00
2:53 pm 14:53 Sunny 81 27.2 56 13.3 42 42 SW 12 19 29.95 1014 10 16 0.00 0.00
3:53 pm 15:53 Mostly Sunny 82 27.8 54 12.2 38 38 WSW 10 17 29.95 1014 10 16 0.00 0.00
4:53 pm 16:53 Mostly Sunny 84 28.9 52 11.1 33 33 WNW 10 17 29.95 1014 10 16 0.00 0.00
5:53 pm 17:53 Mostly Sunny 84 28.9 51 10.6 32 32 W 10 17 29.95 1014 10 16 0.00 0.00
6:53 pm 18:53 Mostly Sunny 82 27.8 52 11.1 35 35 W 7 11 29.95 1014 10 16 0.00 0.00
7:53 pm 19:53 Mostly Cloudy 80 26.7 54 12.2 41 41 W 6 9 29.96 1014 10 16 0.00 0.00
8:53 pm 20:53 Partly Cloudy 79 26.1 51 10.6 38 38 Calm 29.97 1015 10 16 0.00 0.00
9:53 pm 21:53 Partly Cloudy 76 24.4 53 11.7 45 45 Calm 29.99 1016 10 16 0.00 0.00
10:53 pm 22:53 Mostly Clear 71 21.7 55 12.8 57 57 S 3 6 30.01 1016 10 16 0.00 0.00
11:53 pm 23:53 Clear 69 20.6 56 13.3 63 63 Calm 30.01 1016 10 16 0.00 0.00

Powered by AerisWeather